Have a Safe July 4th! 

Flight Track Log - Related Links

Times and Time Zones

All times are in EDT time to prevent confusion due to time zone crossing. See the SKW2631 flight status page for this flight to view local times or setup timezone preferences in your user account.

Time Position Orientation Groundspeed Altitude Reporting Facility
EDT Latitude Longitude Course Direction KTS MPH feet Rate Location/Type
Thu 04:44:18 PM 41.9333 -87.9167 166° South 169 194 2,000  Level Chicago TRACON
Thu 04:45:12 PM 41.8833 -87.9000 166° South 220 253 4,000 2,296 Climbing Chicago TRACON
Thu 04:46:13 PM 41.8167 -87.8667 160° South 251 289 6,400 2,652 Climbing Chicago TRACON
Thu 04:47:30 PM 41.7328 -87.8086 153° Southeast 275 316 10,100 2,590 Climbing Chicago Center
Thu 04:48:32 PM 41.6622 -87.7550 150° Southeast 290 334 12,400 2,032 Climbing Chicago Center
Thu 04:49:34 PM 41.5836 -87.6939 150° Southeast 320 368 14,300 1,824 Climbing Chicago Center
Thu 04:50:37 PM 41.4944 -87.6250 150° Southeast 341 392 16,200 1,632 Climbing Chicago Center
Thu 04:51:39 PM 41.4072 -87.5683 154° Southeast 347 399 17,700 1,452 Climbing Chicago Center
Thu 04:52:41 PM 41.3128 -87.5561 174° South 341 392 19,200 1,452 Climbing Chicago Center
Thu 04:53:43 PM 41.2144 -87.5364 171° South 351 404 20,700 1,403 Climbing Chicago Center
Thu 04:54:45 PM 41.1153 -87.5106 169° South 359 413 22,100 1,306 Climbing Chicago Center
Thu 04:55:47 PM 41.0156 -87.4839 169° South 362 417 23,400 1,403 Climbing Chicago Center
Thu 04:56:49 PM 40.8942 -87.4508 168° South 367 422 25,000 1,248 Climbing Chicago Center
Thu 04:57:52 PM 40.7922 -87.4261 170° South 371 427 26,000 912 Climbing Chicago Center
Thu 04:58:54 PM 40.6903 -87.3975 168° South 371 427 26,900 803 Climbing Chicago Center
Thu 04:59:59 PM 40.5850 -87.3711 169° South 378 435 27,700 756 Climbing Chicago Center
Thu 05:01:01 PM 40.4803 -87.3419 168° South 382 440 28,500 726 Climbing Chicago Center
Thu 05:02:03 PM 40.3761 -87.2622 150° Southeast 409 471 29,200 726 Climbing Chicago Center
Thu 05:03:05 PM 40.2814 -87.1769 146° Southeast 410 472 30,000 774 Climbing Chicago Center
Thu 05:04:07 PM 40.1694 -87.0725 145° Southeast 411 473 30,800 713 Climbing Chicago Center
Thu 05:04:46 PM 40.1136 -87.0197 144° Southeast 412 474 31,200 653 Climbing Indianapolis Center
Thu 05:05:48 PM 40.0208 -86.9347 145° Southeast 411 473 31,900 677 Climbing Indianapolis Center
Thu 05:06:50 PM 39.9286 -86.8539 146° Southeast 407 468 32,600 528 Climbing Indianapolis Center
Thu 05:07:53 PM 39.8364 -86.7783 148° Southeast 398 458 33,000 192 Climbing Indianapolis Center
Thu 05:08:55 PM 39.7256 -86.6806 146° Southeast 401 461 33,000  Level Indianapolis Center
Thu 05:09:57 PM 39.6572 -86.5486 124° Southeast 440 506 33,000  Level Indianapolis Center
Thu 05:10:59 PM 39.5956 -86.4072 119° Southeast 455 524 33,000  Level Indianapolis Center
Thu 05:12:01 PM 39.5331 -86.2653 120° Southeast 460 529 33,000  Level Indianapolis Center
Thu 05:13:05 PM 39.4572 -86.0919 119° Southeast 463 533 33,000  Level Indianapolis Center
Thu 05:14:05 PM 39.3925 -85.9464 120° Southeast 465 535 33,000  Level Indianapolis Center
Thu 05:15:07 PM 39.3278 -85.8017 120° Southeast 466 536 33,000  Level Indianapolis Center
Thu 05:16:09 PM 39.2703 -85.6508 116° Southeast 467 537 33,000  Level Indianapolis Center
Thu 05:17:13 PM 39.2367 -85.4831 104° East 482 555 33,000  Level Indianapolis Center
Thu 05:18:14 PM 39.1922 -85.2858 106° East 482 555 33,000  Level Indianapolis Center
Thu 05:19:16 PM 39.1547 -85.1200 106° East 482 555 33,000  Level Indianapolis Center
Thu 05:20:18 PM 39.1183 -84.9558 106° East 482 555 33,000  Level Indianapolis Center
Thu 05:21:24 PM 39.0786 -84.7811 106° East 481 554 33,000  Level Indianapolis Center
Thu 05:22:23 PM 39.0406 -84.6169 107° East 482 555 33,000  Level Indianapolis Center
Thu 05:23:24 PM 39.0033 -84.4531 106° East 481 554 33,000  Level Indianapolis Center
Thu 05:24:26 PM 38.9650 -84.2903 107° East 481 554 33,000  Level Indianapolis Center
Thu 05:25:28 PM 38.9197 -84.0953 107° East 481 554 33,000  Level Indianapolis Center
Thu 05:26:30 PM 38.8817 -83.9314 107° East 481 554 33,000  Level Indianapolis Center
Thu 05:27:32 PM 38.8431 -83.7694 107° East 481 554 33,000  Level Indianapolis Center
Thu 05:28:34 PM 38.8047 -83.6075 107° East 480 552 33,000  Level Indianapolis Center
Thu 05:29:37 PM 38.7667 -83.4469 107° East 480 552 33,000  Level Indianapolis Center
Thu 05:30:41 PM 38.7194 -83.2531 107° East 479 551 33,000  Level Indianapolis Center
Thu 05:31:41 PM 38.6842 -83.1089 107° East 479 551 33,000  Level Indianapolis Center
Thu 05:32:46 PM 38.6414 -82.9389 108° East 478 550 33,000  Level Indianapolis Center
Thu 05:33:57 PM 38.5747 -82.7958 121° Southeast 470 541 33,000 -97 Level Indianapolis Center
Thu 05:39:59 PM 38.2944 -81.8272 99° East 472 543 32,300 -241 Descending Indianapolis Center
Thu 05:41:00 PM 38.2750 -81.6597 98° East 478 550 31,300 -968 Descending Indianapolis Center
Thu 05:42:00 PM 38.3061 -81.7452 100° East  Level FlightAware Approximate
Thu 05:42:03 PM 38.2556 -81.4914 98° East 480 552 30,300  Level Indianapolis Center
Thu 05:43:00 PM 38.2869 -81.6076 100° East  Level FlightAware Approximate
Thu 05:43:07 PM 38.2364 -81.3242 98° East 480 552 29,300  Level Indianapolis Center
Thu 05:44:00 PM 38.2674 -81.4700 100° East  Level FlightAware Approximate
Thu 05:44:07 PM 38.2122 -81.1250 99° East 480 552 28,100  Level Indianapolis Center
Thu 05:45:00 PM 38.2501 -81.3317 99° East  Level FlightAware Approximate
Thu 05:45:11 PM 38.1928 -80.9597 98° East 480 552 27,100  Level Indianapolis Center
Thu 05:46:12 PM 38.1742 -80.7964 98° East 477 549 26,100 -984 Descending Indianapolis Center
Thu 05:47:13 PM 38.1539 -80.6342 99° East 470 541 25,100 -968 Descending Indianapolis Center
Thu 05:48:16 PM 38.1344 -80.4717 99° East 470 541 24,100 -968 Descending Indianapolis Center
Thu 05:49:17 PM 38.1131 -80.3131 100° East 463 533 23,100 -1,403 Descending Indianapolis Center
Thu 05:50:20 PM 38.0803 -80.1233 102° East 462 532 21,200 -1,548 Descending Indianapolis Center
Thu 05:51:21 PM 38.0556 -79.9864 103° East 461 531 19,900 -1,440 Descending Indianapolis Center
Thu 05:52:25 PM 38.0250 -79.8047 102° East 455 524 18,200 -1,296 Descending Indianapolis Center
Thu 05:53:26 PM 37.9986 -79.6556 103° East 447 514 17,200 -1,210 Descending Indianapolis Center
Thu 05:54:29 PM 37.9736 -79.5125 102° East 432 497 15,700 -1,475 Descending Indianapolis Center
Thu 05:55:28 PM 37.9489 -79.3761 103° East 419 482 14,200 -1,361 Descending Washington Center
Thu 05:56:28 PM 37.9239 -79.2378 103° East 407 468 13,000 -1,289 Descending Washington Center
Thu 05:57:29 PM 37.9428 -79.0967 80° East 370 426 11,600 -1,377 Descending Washington Center
Thu 05:58:30 PM 37.9772 -78.9847 69° East 352 405 10,200 -1,412 Descending Washington Center
Thu 05:59:28 PM 38.0092 -78.8836 68° East 328 377 8,800 -1,412 Descending Washington Center
Thu 06:00:29 PM 38.0389 -78.7900 68° East 302 348 7,400 -1,339 Descending Washington Center
Thu 06:01:29 PM 38.0639 -78.7092 69° East 277 319 6,100 -1,271 Descending Washington Center
Thu 06:02:27 PM 38.0933 -78.6258 66° East 263 303 4,900 -908 Descending Washington Center
Thu 06:03:28 PM 38.1486 -78.5753 36° Northeast 225 259 4,300 -843 Descending Washington Center
Thu 06:04:28 PM 38.1933 -78.5375 34° Northeast 198 228 3,200 -787 Descending Washington Center
Thu 06:05:30 PM 38.2114 -78.4881 65° Northeast 176 203 2,700 -700 Descending Washington Center
Thu 06:06:28 PM 38.1939 -78.4344 113° Southeast 144 166 1,800 -931 Descending Washington Center

Login

Don't have an account? Register now (free) for customized features, flight alerts, and more!